Weather History for KCEY - June, 2013

Change the Weather History Date:

Thursday, June 27, 2013

  Actual Average (KPAH) Record (KPAH)
Temperature  
Mean Temperature 81 °F 78 °F  
Max Temperature 93 °F 89 °F 104 °F (1954)
Min Temperature 69 °F 68 °F 54 °F (2004)
Degree Days  
Heating Degree Days 0 0  
Month to date heating degree days 0  
Since 1 June heating degree days 0  
Since 1 July heating degree days 4128  
Cooling Degree Days 16 13  
Month to date cooling degree days 278  
Year to date cooling degree days 450  
Since 1 June cooling degree days 278  
Growing Degree Days 31 (Base 50)    
Moisture  
Dew Point 70 °F    
Average Humidity 70    
Maximum Humidity 100    
Minimum Humidity 38    
Precipitation  
Precipitation 0.72 in 0.13 in 1.49 in (1960)
Month to date precipitation 3.65  
Year to date precipitation 24.87  
Snow  
Snow 0.00 in 0.00 in 0.00 in (2002)
Month to date snowfall 0.0  
Since 1 June snowfall 0.0  
Since 1 July snowfall 9.1  
Snow Depth -    
Sea Level Pressure  
Sea Level Pressure 29.86 in    
Wind  
Wind Speed 9 mph (West)    
Max Wind Speed 15 mph    
Max Gust Speed 20 mph    
Visibility 10 miles    
Events      
T = Trace of Precipitation, MM = Missing Value Source: NWS Daily Summary

Daily Weather History Graph

Daily Weather History Graph

Search for Another Location

Airport or City:

Trip Planner

Search our weather history database for the weather conditions in past years. The results will help you decide how hot, cold, wet, or windy it might be!

Date:

Astronomy

Jun. 27, 2013 Rise Set
Actual Time 5:36 AM CDT 8:16 PM CDT
Civil Twilight 5:06 AM CDT 8:46 PM CDT
Nautical Twilight 4:28 AM CDT 9:24 PM CDT
Astronomical Twilight 3:45 AM CDT 10:07 PM CDT
Moon 11:22 PM CDT (6/27) 10:29 AM CDT (6/27)
Length of Visible Light 15h 40m
Length of Day
14h 39m
Waning Gibbous, 76% of the Moon is Illuminated
Jun 27
Waning Gibbous
Jun 29
Last Quarter
Jul 8
New
Jul 15
First Quarter
Jul 22
Full

Hourly Weather History & Observations

Time (CDT) Temp. Heat Index Dew Point Humidity Pressure Visibility Wind Dir Wind Speed Gust Speed Precip Events Conditions
12:15 AM 73.4 °F - 71.6 °F 94% 29.88 in 2.5 mi SSW 6.9 mph - 0.11 in   Overcast
12:35 AM 71.6 °F - 71.6 °F 100% 29.85 in 10.0 mi SW 9.2 mph - 0.13 in   Overcast
1:15 AM 71.6 °F - 66.2 °F 83% 29.91 in 2.0 mi North 10.4 mph - 0.23 in   Unknown
1:35 AM 71.6 °F - 71.6 °F 100% 29.90 in 2.0 mi NW 6.9 mph - 0.47 in   Overcast
1:55 AM 69.8 °F - 69.8 °F 100% 29.88 in 2.0 mi NW 4.6 mph - 0.72 in   Overcast
2:15 AM 71.6 °F - 71.6 °F 100% 29.87 in 10.0 mi NNW 3.5 mph - N/A   Mostly Cloudy
2:35 AM 71.6 °F - 69.8 °F 94% 29.86 in 10.0 mi South 10.4 mph - N/A   Mostly Cloudy
2:55 AM 69.8 °F - 69.8 °F 100% 29.86 in 10.0 mi South 8.1 mph - N/A   Overcast
3:15 AM 69.8 °F - 69.8 °F 100% 29.85 in 10.0 mi SSW 6.9 mph - N/A   Overcast
3:35 AM 69.8 °F - 69.8 °F 100% 29.84 in 10.0 mi South 8.1 mph - N/A   Overcast
3:55 AM 69.8 °F - 69.8 °F 100% 29.84 in 10.0 mi SSW 5.8 mph - N/A   Mostly Cloudy
4:15 AM 71.6 °F - 71.6 °F 100% 29.84 in 10.0 mi SW 6.9 mph - N/A   Mostly Cloudy
4:35 AM 71.6 °F - 71.6 °F 100% 29.84 in 10.0 mi SSW 9.2 mph - N/A   Scattered Clouds
4:55 AM 71.6 °F - 71.6 °F 100% 29.84 in 10.0 mi SSW 6.9 mph - N/A   Unknown
5:15 AM 71.6 °F - 71.6 °F 100% 29.85 in 10.0 mi SW 8.1 mph - N/A   Clear
5:35 AM 71.6 °F - 71.6 °F 100% 29.85 in 10.0 mi SW 9.2 mph - N/A   Clear
5:55 AM 73.4 °F - 71.6 °F 94% 29.85 in 10.0 mi SW 10.4 mph 16.1 mph N/A   Clear
6:15 AM 73.4 °F - 71.6 °F 94% 29.86 in 10.0 mi WSW 8.1 mph - N/A   Clear
6:35 AM 73.4 °F - 71.6 °F 94% 29.85 in 10.0 mi WSW 9.2 mph - N/A   Clear
6:55 AM 75.2 °F - 73.4 °F 94% 29.85 in 10.0 mi WSW 9.2 mph - N/A   Clear
7:15 AM 75.2 °F - 73.4 °F 94% 29.86 in 10.0 mi West 9.2 mph - N/A   Clear
7:35 AM 77.0 °F - 73.4 °F 89% 29.86 in 10.0 mi West 10.4 mph - N/A   Clear
7:55 AM 78.8 °F - 75.2 °F 89% 29.87 in 10.0 mi West 10.4 mph - N/A   Clear
8:15 AM 80.6 °F 86.2 °F 75.2 °F 84% 29.88 in 10.0 mi WNW 9.2 mph - N/A   Clear
8:35 AM 80.6 °F 86.2 °F 75.2 °F 84% 29.88 in 10.0 mi WNW 9.2 mph - N/A   Clear
8:55 AM 82.4 °F 89.5 °F 75.2 °F 79% 29.88 in 10.0 mi WNW 8.1 mph - N/A   Clear
9:15 AM 82.4 °F 89.5 °F 75.2 °F 79% 29.88 in 10.0 mi WNW 10.4 mph - N/A   Clear
9:35 AM 84.2 °F 92.3 °F 75.2 °F 74% 29.88 in 10.0 mi WNW 8.1 mph - N/A   Clear
9:55 AM 84.2 °F 92.3 °F 75.2 °F 74% 29.88 in 10.0 mi WNW 6.9 mph - N/A   Clear
10:15 AM 86.0 °F 95.1 °F 75.2 °F 70% 29.88 in 10.0 mi NW 10.4 mph 17.3 mph N/A   Clear
10:35 AM 86.0 °F 93.4 °F 73.4 °F 66% 29.88 in 10.0 mi NW 11.5 mph 16.1 mph N/A   Clear
10:55 AM 87.8 °F 95.6 °F 73.4 °F 62% 29.88 in 10.0 mi NW 11.5 mph 18.4 mph N/A   Clear
11:15 AM 87.8 °F 93.8 °F 71.6 °F 58% 29.88 in 10.0 mi NW 11.5 mph - N/A   Clear
11:35 AM 89.6 °F 94.7 °F 69.8 °F 52% 29.88 in 10.0 mi NW 12.7 mph - N/A   Clear
11:55 AM 89.6 °F 94.7 °F 69.8 °F 52% 29.88 in 10.0 mi NW 12.7 mph 17.3 mph N/A   Clear
12:15 PM 89.6 °F 93.4 °F 68.0 °F 49% 29.88 in 10.0 mi WNW 12.7 mph 18.4 mph N/A   Clear
12:35 PM 89.6 °F 94.7 °F 69.8 °F 52% 29.88 in 10.0 mi WNW 13.8 mph 18.4 mph N/A   Clear
12:55 PM 91.4 °F 95.4 °F 68.0 °F 46% 29.88 in 10.0 mi NW 12.7 mph - N/A   Clear
1:15 PM 91.4 °F 95.4 °F 68.0 °F 46% 29.88 in 10.0 mi WNW 15.0 mph 19.6 mph N/A   Clear
1:35 PM 91.4 °F 95.4 °F 68.0 °F 46% 29.88 in 10.0 mi NW 12.7 mph 18.4 mph N/A   Clear
1:55 PM 91.4 °F 96.8 °F 69.8 °F 49% 29.88 in 10.0 mi NW 13.8 mph 17.3 mph N/A   Clear
2:15 PM 93.2 °F 96.2 °F 66.2 °F 41% 29.88 in 10.0 mi NW 13.8 mph 19.6 mph N/A   Clear
2:35 PM 93.2 °F 96.2 °F 66.2 °F 41% 29.88 in 10.0 mi NW 15.0 mph 18.4 mph N/A   Clear
2:55 PM 93.2 °F 96.2 °F 66.2 °F 41% 29.88 in 10.0 mi NW 13.8 mph 17.3 mph N/A   Clear
3:15 PM 93.2 °F 96.2 °F 66.2 °F 41% 29.88 in 10.0 mi NW 10.4 mph - N/A   Clear
3:35 PM 93.2 °F 96.2 °F 66.2 °F 41% 29.88 in 10.0 mi NW 15.0 mph 19.6 mph N/A   Clear
3:55 PM 93.2 °F 96.2 °F 66.2 °F 41% 29.88 in 10.0 mi NNW 12.7 mph - N/A   Clear
4:15 PM 93.2 °F 94.9 °F 64.4 °F 38% 29.88 in 10.0 mi NW 12.7 mph - N/A   Clear
4:35 PM 93.2 °F 94.9 °F 64.4 °F 38% 29.88 in 10.0 mi NW 11.5 mph - N/A   Clear
4:55 PM 93.2 °F 96.2 °F 66.2 °F 41% 29.87 in 10.0 mi NW 11.5 mph - N/A   Clear
5:15 PM 91.4 °F 94.0 °F 66.2 °F 43% 29.87 in 10.0 mi NNW 9.2 mph - N/A   Clear
5:35 PM 91.4 °F 93.2 °F 64.4 °F 41% 29.86 in 10.0 mi NNW 10.4 mph - N/A   Clear
5:55 PM 91.4 °F 93.2 °F 64.4 °F 41% 29.86 in 10.0 mi NNW 8.1 mph - N/A   Clear
6:15 PM 91.4 °F 94.0 °F 66.2 °F 43% 29.85 in 10.0 mi NW 8.1 mph - N/A   Clear
6:35 PM 89.6 °F 92.2 °F 66.2 °F 46% 29.86 in 10.0 mi NW 8.1 mph - N/A   Clear
6:55 PM 89.6 °F 93.4 °F 68.0 °F 49% 29.86 in 10.0 mi NW 4.6 mph - N/A   Clear
7:15 PM 89.6 °F 93.4 °F 68.0 °F 49% 29.85 in 10.0 mi WNW 4.6 mph - N/A   Clear
7:35 PM 89.6 °F 94.7 °F 69.8 °F 52% 29.85 in 10.0 mi WNW 4.6 mph - N/A   Clear
7:55 PM 84.2 °F 89.6 °F 71.6 °F 66% 29.85 in 10.0 mi WSW 4.6 mph - N/A   Clear
8:15 PM 82.4 °F 87.2 °F 71.6 °F 70% 29.84 in 10.0 mi SW 4.6 mph - N/A   Clear
8:35 PM 80.6 °F 84.6 °F 71.6 °F 74% 29.84 in 10.0 mi SW 4.6 mph - N/A   Clear
8:55 PM 80.6 °F 83.9 °F 69.8 °F 70% 29.84 in 10.0 mi WSW 5.8 mph - N/A   Clear
9:15 PM 80.6 °F 83.9 °F 69.8 °F 70% 29.83 in 10.0 mi SW 4.6 mph - N/A   Clear
9:35 PM 78.8 °F - 68.0 °F 69% 29.83 in 10.0 mi SW 5.8 mph - N/A   Clear
9:55 PM 80.6 °F 83.2 °F 68.0 °F 65% 29.84 in 10.0 mi WSW 3.5 mph - N/A   Clear
10:15 PM 77.0 °F - 68.0 °F 74% 29.83 in 10.0 mi SW 5.8 mph - N/A   Clear
10:35 PM 75.2 °F - 68.0 °F 78% 29.82 in 10.0 mi Calm Calm - N/A   Clear
10:55 PM 77.0 °F - 68.0 °F 74% 29.82 in 10.0 mi WSW 3.5 mph - N/A   Clear
11:15 PM 77.0 °F - 68.0 °F 74% 29.82 in 10.0 mi West 3.5 mph - N/A   Clear
11:35 PM 77.0 °F - 68.0 °F 74% 29.83 in 10.0 mi WSW 5.8 mph - N/A   Clear
11:55 PM 77.0 °F - 68.0 °F 74% 29.85 in 10.0 mi WSW 5.8 mph - N/A   Unknown